Content
SEND FEEDBACK

Daily
Averages
Monthly
Summary
Sweden

VAXJO, SWEDEN


Home > Europe > Sweden
Elevation: 548 feet     Latitude: 56 41N     Longitude: 014 57E

WEATHER
 
SELECT A DAY
Number of Records: 242,491;   Date Range: 2/20/97 - 7/20/14
 
SHARE

PRINT THIS DATA

[ ← Previous Day ]
WEATHER ALMANAC - FEBRUARY 13, 2013
[ Next Day → ]
[ °C ]   °F
Weather ElementAverageHighLow
Temperature27.3 °F32 °F (2:20 pm)21.2 °F (12:50 am)
Dewpoint25.4 °F28.4 °F (12:50 pm)21.2 °F (12:50 am)
Humidity92.7 %100 % (12:50 am)86 % (12:20 pm)
Barometer30.24 in30.30 in (2:50 pm)30.12 in (12:50 am)
Wind Speed5.3 mph8.1 mph (10:20 am)
Weather ElementAverage
Visibility6.2 mi
Wind DirectionENE (65.1 °)

Weather ElementTotal
Precipitation---
Heating Degree Days38.4 (Base 65)
Averaged from 47 records on February 13, 2013
WEATHER CONDITIONS BREAKOUT
WIND DIRECTION BREAKOUT
WEATHER BY HOUR - FEBRUARY 13, 2013
[ °C ]   °F
Local TimeTemperatureDewpointHumidityBarometerVisibilityWind DirectionWind SpeedGust SpeedPrecipitationEventsConditions
12:50 AM21.2 °F21.2 °F100 %30.12 in6.2 miNorth (360°)3.5 mphSnowLight Snow
1:20 AM21.2 °F21.2 °F100 %30.12 in6.2 miNorth (10°)3.5 mphSnowLight Snow
1:50 AM23.0 °F21.2 °F93 %30.12 in6.2 miNorth (10°)5.8 mphOvercast
2:20 AM23.0 °F21.2 °F93 %30.12 in6.2 miNorth (10°)4.6 mphOvercast
2:50 AM23.0 °F23.0 °F100 %30.12 in6.2 miNNE (20°)5.8 mphOvercast
3:20 AM24.8 °F23.0 °F93 %30.15 in6.2 miNNE (30°)4.6 mphOvercast
3:50 AM24.8 °F23.0 °F93 %30.15 in6.2 miNNE (30°)5.8 mphOvercast
4:20 AM24.8 °F23.0 °F93 %30.15 in6.2 miNNE (30°)5.8 mphOvercast
4:50 AM24.8 °F23.0 °F93 %30.15 in6.2 miNNE (30°)4.6 mphSnowLight Snow
5:20 AM24.8 °F23.0 °F93 %30.18 in6.2 miNE (40°)3.5 mphSnowLight Snow
5:50 AM24.8 °F24.8 °F100 %30.18 in6.2 miNE (40°)3.5 mphSnowLight Snow
6:20 AM24.8 °F24.8 °F100 %30.18 in6.2 miNNE (20°)4.6 mphOvercast
6:50 AM24.8 °F24.8 °F100 %30.18 in6.2 miNorth (10°)5.8 mphMostly Cloudy
7:20 AM24.8 °F24.8 °F100 %30.21 in6.2 miNNE (30°)5.8 mphOvercast
7:50 AM24.8 °F24.8 °F100 %30.21 in6.2 miNNE (30°)4.6 mphOvercast
8:20 AM26.6 °F24.8 °F93 %30.21 in6.2 miENE (70°)4.6 mphOvercast
8:50 AM26.6 °F24.8 °F93 %30.24 in6.2 miEast (80°)5.8 mphOvercast
9:20 AM26.6 °F24.8 °F93 %30.24 in6.2 miENE (60°)4.6 mphOvercast
9:50 AM26.6 °F24.8 °F93 %30.24 in6.2 miNE (40°)5.8 mphOvercast
10:20 AM28.4 °F26.6 °F93 %30.24 in6.2 miENE (60°)8.1 mphOvercast
10:50 AM28.4 °F26.6 °F93 %30.27 in6.2 miNE (40°)4.6 mphMostly Cloudy
11:20 AM28.4 °F26.6 °F93 %30.27 in6.2 miNE (40°)5.8 mphMostly Cloudy
11:50 AM28.4 °F26.6 °F93 %30.27 in6.2 miNE (40°)5.8 mphOvercast
12:20 PM30.2 °F26.6 °F86 %30.27 in6.2 miNorth (350°)4.6 mphOvercast
12:50 PM30.2 °F28.4 °F93 %30.27 in6.2 miNNE (30°)5.8 mphOvercast
1:20 PM30.2 °F28.4 °F93 %30.27 in6.2 miNorth (10°)5.8 mphOvercast
1:50 PM30.2 °F28.4 °F93 %30.27 in6.2 miNorth (10°)6.9 mphOvercast
2:20 PM32.0 °F28.4 °F87 %30.27 in6.2 miNE (40°)6.9 mphOvercast
2:50 PM30.2 °F26.6 °F86 %30.30 in6.2 miNE (40°)5.8 mphMostly Cloudy
3:20 PM30.2 °F26.6 °F86 %30.27 in6.2 miNorth (360°)5.8 mphSnowLight Snow
3:50 PM30.2 °F26.6 °F86 %30.30 in6.2 miNorth (10°)5.8 mphSnowLight Snow
4:20 PM30.2 °F26.6 °F86 %30.30 in6.2 miNNE (30°)5.8 mphOvercast
4:50 PM30.2 °F26.6 °F86 %30.30 in6.2 miNNE (20°)4.6 mphOvercast
5:20 PM30.2 °F26.6 °F86 %30.30 in6.2 miNNE (20°)5.8 mphOvercast
5:50 PM30.2 °F26.6 °F86 %30.30 in6.2 miNNE (20°)5.8 mphMostly Cloudy
6:20 PM28.4 °F26.6 °F93 %30.30 in6.2 miNNE (20°)5.8 mphMostly Cloudy
6:50 PM28.4 °F26.6 °F93 %30.30 in6.2 miNNE (30°)5.8 mphMostly Cloudy
7:20 PM28.4 °F26.6 °F93 %30.30 in6.2 miNE (40°)5.8 mphMostly Cloudy
7:50 PM28.4 °F26.6 °F93 %30.30 in6.2 miNE (40°)5.8 mphMostly Cloudy
8:20 PM28.4 °F26.6 °F93 %30.30 in6.2 miNE (50°)5.8 mphOvercast
8:50 PM28.4 °F24.8 °F86 %30.30 in6.2 miNNE (30°)4.6 mphOvercast
9:20 PM28.4 °F26.6 °F93 %30.30 in6.2 miNNE (20°)4.6 mphOvercast
9:50 PM26.6 °F24.8 °F93 %30.30 in6.2 miNorth (10°)5.8 mphOvercast
10:20 PM28.4 °F26.6 °F93 %30.30 in6.2 miNorth (360°)4.6 mphOvercast
10:50 PM28.4 °F26.6 °F93 %30.30 in6.2 miNorth (10°)4.6 mphOvercast
11:20 PM28.4 °F26.6 °F93 %30.30 in6.2 miNorth (360°)4.6 mphOvercast
11:50 PM28.4 °F26.6 °F93 %30.30 in5.6 miNNE (20°)3.5 mphOvercast
Hourly data recorded from ESMX, located miles away from Vaxjo, Sweden







STORIES FROM OUR PARTNERS